Weather reports worldwide

Advertisment
Banjarmasin/Syamsudin Noor, Indonesia (96685): temperature & dewpoint: 13.10.2018 01:00:00 - 19.10.2018 01:00:00 (WITA)Banjarmasin/Syamsudin Noor, Indonesia (96685): wind speed: 13.10.2018 01:00:00 - 19.10.2018 01:00:00 (WITA)Banjarmasin/Syamsudin Noor, Indonesia (96685): wind direction: 13.10.2018 01:00:00 - 19.10.2018 01:00:00 (WITA)Banjarmasin/Syamsudin Noor, Indonesia (96685): reduced air pressure: 13.10.2018 01:00:00 - 19.10.2018 01:00:00 (WITA)Banjarmasin/Syamsudin Noor, Indonesia (96685): visibility: 13.10.2018 01:00:00 - 19.10.2018 01:00:00 (WITA)
Date & Time tt [°C] td [°C] ff [km/h] ff [kn] dd ppp [hPa] vv [km]
19.10.2018 01:00:00 - - - - - - -
19.10.2018 00:00:00 - - - - - - -
18.10.2018 23:00:00 26,8 23,8 5 3 S 1011,7 9
18.10.2018 22:00:00 27,0 24,0 5 3 S - 8
18.10.2018 21:00:00 28,0 24,0 8 4 SW - 10
18.10.2018 20:00:00 28,3 23,8 5 3 SSW 1009,8 10
18.10.2018 19:00:00 - - - - - - -
18.10.2018 18:00:00 - - - - - - -
18.10.2018 17:00:00 33,5 22,4 11 6 SSE 1007,2 10
18.10.2018 16:00:00 - - - - - - -
18.10.2018 15:00:00 - - - - - - -
18.10.2018 14:00:00 34,4 19,7 9 5 ENE 1008,3 10
18.10.2018 13:00:00 - - - - - - -
18.10.2018 12:00:00 - - - - - - -
18.10.2018 11:00:00 32,0 22,3 5 3 SE 1011,5 10
18.10.2018 10:00:00 - - - - - - -
18.10.2018 09:00:00 - - - - - - -
18.10.2018 08:00:00 26,0 24,1 0 0 N 1011,7 6
18.10.2018 07:00:00 24,0 24,0 0 0 N - 6
18.10.2018 06:00:00 24,0 23,0 0 0 N - 5
18.10.2018 05:00:00 24,3 23,6 8 4 SE 1009,4 3,0
18.10.2018 04:00:00 - - - - - - -
18.10.2018 03:00:00 - - - - - - -
18.10.2018 02:00:00 25,1 23,7 5 3 SW 1009,2 7
18.10.2018 01:00:00 24,0 24,0 11 6 E - 7
18.10.2018 00:00:00 - - - - - - -
17.10.2018 23:00:00 26,5 24,4 0 0 N 1010,3 8
17.10.2018 22:00:00 27,0 24,0 4 2 SSE - 10
17.10.2018 21:00:00 - - - - - - -
17.10.2018 20:00:00 27,6 23,9 8 4 S 1008,9 10
17.10.2018 19:00:00 29,0 23,0 9 5 SE - 10
17.10.2018 18:00:00 - - - - - - -
17.10.2018 17:00:00 31,2 23,2 13 7 SSE 1007,1 10
17.10.2018 16:00:00 32,0 22,0 13 7 SW - 10
17.10.2018 15:00:00 32,0 22,0 9 5 S - 10
17.10.2018 14:00:00 33,6 23,2 8 4 W 1007,8 10
17.10.2018 13:00:00 32,0 24,0 5 3 SSW - 10
17.10.2018 12:00:00 - - - - - - -
17.10.2018 11:00:00 32,3 22,8 5 3 NE 1011,6 10
17.10.2018 10:00:00 31,0 23,0 5 3 ENE - 10
17.10.2018 09:00:00 - - - - - - -
17.10.2018 08:00:00 27,0 24,0 5 3 SE 1012,2 9
17.10.2018 07:00:00 25,0 24,0 5 3 SE - 4,0
17.10.2018 06:00:00 24,0 24,0 9 5 E - 2,4
17.10.2018 05:00:00 24,8 23,7 0 0 N 1010,1 6
17.10.2018 04:00:00 - - - - - - -
17.10.2018 03:00:00 - - - - - - -
17.10.2018 02:00:00 25,8 23,6 0 0 N 1009,7 7
17.10.2018 01:00:00 - - - - - - -
17.10.2018 00:00:00 25,0 25,0 8 4 E - 3,1
16.10.2018 23:00:00 27,0 24,0 4 2 SSW 1011,3 9
16.10.2018 22:00:00 27,0 25,0 9 5 SE - 7
16.10.2018 21:00:00 27,0 25,0 9 5 ESE - 10
16.10.2018 20:00:00 29,0 24,1 8 4 SSW 1009,8 9
16.10.2018 19:00:00 - - - - - - -
16.10.2018 18:00:00 - - - - - - -
16.10.2018 17:00:00 32,1 25,8 15 8 WNW 1007,5 10
16.10.2018 16:00:00 33,0 25,0 15 8 W - 10
16.10.2018 15:00:00 - - - - - - -
16.10.2018 14:00:00 34,2 23,1 9 5 ESE 1008,7 10
16.10.2018 13:00:00 - - - - - - -
16.10.2018 12:00:00 - - - - - - -
16.10.2018 11:00:00 31,1 22,9 9 5 SE 1012,1 10
16.10.2018 10:00:00 - - - - - - -
16.10.2018 09:00:00 - - - - - - -
16.10.2018 08:00:00 26,0 24,4 4 2 E 1012,9 5
16.10.2018 07:00:00 24,0 23,0 4 2 ESE - 2,0
16.10.2018 06:00:00 24,0 23,0 0 0 N - 3,0
16.10.2018 05:00:00 24,2 22,9 4 2 - 1011,4 2,7
16.10.2018 04:00:00 - - - - - - -
16.10.2018 03:00:00 - - - - - - -
16.10.2018 02:00:00 25,2 23,7 0 0 N 1011,0 5
16.10.2018 01:00:00 24,0 24,0 11 6 E - 2,5
16.10.2018 00:00:00 25,0 24,0 9 5 E - 6
15.10.2018 23:00:00 26,6 24,1 0 0 N 1012,6 8
15.10.2018 22:00:00 - - - - - - -
15.10.2018 21:00:00 - - - - - - -
15.10.2018 20:00:00 27,9 24,1 5 3 S 1011,3 10
15.10.2018 19:00:00 - - - - - - -
15.10.2018 18:00:00 30,0 23,0 11 6 S - 10
15.10.2018 17:00:00 31,1 22,6 16 9 SE 1009,4 10
15.10.2018 16:00:00 33,0 22,0 18 10 S - 10
15.10.2018 15:00:00 33,0 25,0 15 8 SW - 10
15.10.2018 14:00:00 31,2 25,0 16 9 W 1010,0 10
15.10.2018 13:00:00 32,0 23,0 8 4 SSW - 9
15.10.2018 12:00:00 32,0 22,0 9 5 ESE - 10
15.10.2018 11:00:00 31,6 23,1 8 4 SSE 1012,9 10
15.10.2018 10:00:00 30,0 24,0 9 5 SSE - 10
15.10.2018 09:00:00 28,0 25,0 8 4 SE - 9
15.10.2018 08:00:00 25,0 23,6 4 2 SE 1013,4 7
15.10.2018 07:00:00 24,0 23,0 5 3 ESE - 4,0
15.10.2018 06:00:00 24,0 23,0 0 0 N - 3,0
15.10.2018 05:00:00 23,9 23,1 5 3 ESE 1011,7 5
15.10.2018 04:00:00 - - - - - - -
15.10.2018 03:00:00 23,0 23,0 2 1 E - 1,3
15.10.2018 02:00:00 24,4 23,6 0 0 N 1011,4 6
15.10.2018 01:00:00 - - - - - - -
15.10.2018 00:00:00 - - - - - - -
14.10.2018 23:00:00 24,9 23,8 0 0 N 1012,8 8
14.10.2018 22:00:00 25,0 24,0 5 3 SSW - 8
14.10.2018 21:00:00 26,0 24,0 5 3 S - 8
14.10.2018 20:00:00 26,8 23,6 9 5 S 1012,1 8
14.10.2018 19:00:00 27,0 24,0 5 3 SW - 10
14.10.2018 18:00:00 28,0 23,0 5 3 SW - 10
14.10.2018 17:00:00 28,7 23,3 9 5 SW 1010,0 10
14.10.2018 16:00:00 - - - - - - -
14.10.2018 15:00:00 30,0 24,0 8 4 SE - 10
14.10.2018 14:00:00 30,1 23,4 0 0 N 1010,5 10
14.10.2018 13:00:00 30,0 23,0 2 1 NNE - 10
14.10.2018 12:00:00 29,0 24,0 4 2 NNE - 10
14.10.2018 11:00:00 27,6 24,3 9 5 NE 1013,0 10
14.10.2018 10:00:00 - - - - - - -
14.10.2018 09:00:00 - - - - - - -
14.10.2018 08:00:00 23,6 23,3 8 4 NNE 1013,1 2,0
14.10.2018 07:00:00 23,0 23,0 8 4 NNE - 0,3
14.10.2018 06:00:00 23,0 23,0 9 5 NNE - 0,2
14.10.2018 05:00:00 23,2 22,9 0 0 N 1011,8 0,3
14.10.2018 04:00:00 - - - - - - -
14.10.2018 03:00:00 - - - - - - -
14.10.2018 02:00:00 23,4 22,7 0 0 N 1011,8 4,0
14.10.2018 01:00:00 - - - - - - -
14.10.2018 00:00:00 23,0 23,0 5 3 NW - 3,9
13.10.2018 23:00:00 23,2 22,6 8 4 NNE 1012,6 4,0
13.10.2018 22:00:00 23,0 23,0 8 4 NNE - 4,0
13.10.2018 21:00:00 23,0 23,0 11 6 NE - 3,0
13.10.2018 20:00:00 23,4 22,7 5 3 ENE 1011,2 4,0
13.10.2018 19:00:00 - - - - - - -
13.10.2018 18:00:00 - - - - - - -
13.10.2018 17:00:00 23,8 22,4 8 4 WNW 1009,6 6
13.10.2018 16:00:00 - - - - - - -
13.10.2018 15:00:00 - - - - - - -
13.10.2018 14:00:00 27,6 24,0 21 11 NNW 1009,3 6
13.10.2018 13:00:00 - - - - - - -
13.10.2018 12:00:00 - - - - - - -
13.10.2018 11:00:00 30,2 24,8 8 4 NW 1012,0 8
13.10.2018 10:00:00 - - - - - - -
13.10.2018 09:00:00 - - - - - - -
13.10.2018 08:00:00 25,4 24,6 5 3 NNE 1012,2 7
13.10.2018 07:00:00 25,0 24,0 5 3 N - 8
13.10.2018 06:00:00 25,0 24,0 5 3 W - 4,0
13.10.2018 05:00:00 25,0 24,3 4 2 NE 1010,3 5
13.10.2018 04:00:00 - - - - - - -
13.10.2018 03:00:00 - - - - - - -
13.10.2018 02:00:00 25,4 24,4 5 3 WNW 1010,4 4,0
13.10.2018 01:00:00 - - - - - - -

tt = temperature
td = dewpoint
ff = wind speed
dd = wind direction
ppp = reduced air pressure
vv = visibility

Next stations